Terminal Aerodrome Forecast
Issued by NWS Wilmington, OH

Current Version | Previous Version | Text Only | Print | Product List | Glossary Off
Versions: 1 2 3 4 5 6 7 8 9 10 11 12 13 14 15 16 17

477
FTUS41 KILN 201734
TAFCMH
TAF
KCMH 201734Z 2018/2118 29013KT P6SM SCT060
     FM210200 24005KT P6SM SCT060 BKN120
     FM211400 26009KT P6SM SCT050=

USA.gov is the U.S. government's official web portal to all federal, state and local government web resources and services.